When you browse on this site, cookies collect data to enhance your experience and personalize the content and advertising you see.
Visit our Privacy Policy to learn more. By continuing to use the site, you agree to this use of cookies and data.

Hourly Weather Golovachi

Today, 7 July, Tuesday

Time Temperature Precipitation Wind Pressure Humidity
00:00 +19°C° 0.5 mm 4 mps 739 mmHg 94%
01:00 +19°C° 0.5 mm 4 mps 739 mmHg 94%
02:00 +17°C° 0 mm 7 mps 739 mmHg 89%
03:00 +16°C° 1.1 mm 6 mps 740 mmHg 91%
04:00 +15°C° 1.1 mm 5 mps 740 mmHg 93%
05:00 +14°C° 1.1 mm 4 mps 740 mmHg 95%
06:00 +14°C° 1.1 mm 4 mps 740 mmHg 95%
07:00 +14°C° 1.1 mm 4 mps 741 mmHg 95%
08:00 +14°C° 1.1 mm 5 mps 741 mmHg 94%
09:00 +13°C° 0.5 mm 4 mps 741 mmHg 94%
10:00 +13°C° 0.5 mm 4 mps 742 mmHg 93%
11:00 +12°C° 0.5 mm 4 mps 742 mmHg 92%
12:00 +13°C° 0.1 mm 3 mps 742 mmHg 90%
13:00 +13°C° 0.1 mm 3 mps 742 mmHg 88%
14:00 +14°C° 0.1 mm 2 mps 742 mmHg 86%
15:00 +15°C° 0.2 mm 2 mps 742 mmHg 86%
16:00 +16°C° 0.2 mm 2 mps 742 mmHg 85%
17:00 +16°C° 0.2 mm 2 mps 742 mmHg 85%
18:00 +16°C° 0.3 mm 2 mps 742 mmHg 87%
19:00 +15°C° 0.3 mm 2 mps 742 mmHg 88%
20:00 +14°C° 0.3 mm 3 mps 742 mmHg 90%
21:00 +13°C° 0 mm 3 mps 743 mmHg 90%
22:00 +12°C° 0 mm 3 mps 743 mmHg 91%
23:00 +12°C° 0 mm 4 mps 743 mmHg 91%

Tomorrow, 8 July, Wednesday

Time Temperature Precipitation Wind Pressure Humidity
00:00 +11°C° 0 mm 4 mps 743 mmHg 92%
01:00 +10°C° 0 mm 3 mps 743 mmHg 93%
02:00 +10°C° 0 mm 3 mps 743 mmHg 94%
03:00 +9°C° 0 mm 3 mps 743 mmHg 95%
04:00 +9°C° 0 mm 3 mps 743 mmHg 95%
05:00 +9°C° 0 mm 3 mps 743 mmHg 96%
06:00 +10°C° 0 mm 4 mps 743 mmHg 92%
07:00 +12°C° 0 mm 4 mps 744 mmHg 88%
08:00 +13°C° 0 mm 4 mps 744 mmHg 84%
09:00 +14°C° 0 mm 4 mps 744 mmHg 77%
10:00 +17°C° 0 mm 4 mps 744 mmHg 71%
11:00 +18°C° 0 mm 4 mps 744 mmHg 65%
12:00 +18°C° 0 mm 4 mps 744 mmHg 64%
13:00 +19°C° 0 mm 4 mps 744 mmHg 63%
14:00 +19°C° 0 mm 4 mps 744 mmHg 62%
15:00 +19°C° 0.3 mm 4 mps 744 mmHg 68%
16:00 +18°C° 0.3 mm 4 mps 744 mmHg 74%
17:00 +17°C° 0.3 mm 4 mps 744 mmHg 79%
18:00 +16°C° 0.2 mm 3 mps 744 mmHg 83%
19:00 +14°C° 0.2 mm 3 mps 744 mmHg 86%
20:00 +14°C° 0.2 mm 2 mps 744 mmHg 90%
21:00 +14°C° 0 mm 2 mps 744 mmHg 91%
22:00 +13°C° 0 mm 2 mps 744 mmHg 92%
23:00 +12°C° 0 mm 2 mps 744 mmHg 93%

Day after tomorrow, 9 July, Thursday

Time Temperature Precipitation Wind Pressure Humidity
00:00 +12°C° 0 mm 2 mps 745 mmHg 93%
01:00 +13°C° 0 mm 2 mps 745 mmHg 94%
02:00 +12°C° 0 mm 3 mps 745 mmHg 94%
03:00 +12°C° 0 mm 3 mps 745 mmHg 95%
04:00 +11°C° 0 mm 3 mps 745 mmHg 95%
05:00 +11°C° 0 mm 3 mps 746 mmHg 96%
06:00 +12°C° 0 mm 3 mps 746 mmHg 93%
07:00 +13°C° 0 mm 3 mps 746 mmHg 90%
08:00 +14°C° 0 mm 3 mps 746 mmHg 87%
09:00 +15°C° 0.1 mm 4 mps 747 mmHg 82%
10:00 +17°C° 0.1 mm 4 mps 747 mmHg 77%
11:00 +18°C° 0.1 mm 4 mps 747 mmHg 73%
12:00 +19°C° 0.1 mm 4 mps 747 mmHg 69%
13:00 +19°C° 0.1 mm 4 mps 747 mmHg 66%
14:00 +20°C° 0.1 mm 5 mps 747 mmHg 63%
15:00 +20°C° 0 mm 4 mps 747 mmHg 64%
16:00 +19°C° 0 mm 4 mps 747 mmHg 65%
17:00 +19°C° 0 mm 4 mps 747 mmHg 66%
18:00 +18°C° 0 mm 3 mps 747 mmHg 71%
19:00 +17°C° 0 mm 2 mps 747 mmHg 76%
20:00 +15°C° 0 mm 1 mps 747 mmHg 81%
21:00 +14°C° 0 mm 1 mps 748 mmHg 83%
22:00 +13°C° 0 mm 1 mps 748 mmHg 85%
23:00 +12°C° 0 mm 1 mps 748 mmHg 87%

10 July, Friday

Time Temperature Precipitation Wind Pressure Humidity
00:00 +12°C° 0 mm 1 mps 748 mmHg 87%
01:00 +12°C° 0 mm 1 mps 748 mmHg 88%
02:00 +11°C° 0 mm 1 mps 748 mmHg 88%
03:00 +11°C° 0 mm 1 mps 748 mmHg 88%
04:00 +11°C° 0 mm 1 mps 748 mmHg 89%
05:00 +12°C° 0 mm 2 mps 748 mmHg 90%
06:00 +13°C° 0 mm 2 mps 748 mmHg 87%
07:00 +14°C° 0 mm 3 mps 748 mmHg 85%
08:00 +17°C° 0 mm 3 mps 748 mmHg 82%
09:00 +18°C° 0 mm 4 mps 748 mmHg 78%
10:00 +20°C° 0 mm 4 mps 748 mmHg 74%
11:00 +21°C° 0 mm 4 mps 748 mmHg 70%
12:00 +21°C° 0.1 mm 4 mps 748 mmHg 71%
13:00 +21°C° 0.1 mm 4 mps 747 mmHg 73%
14:00 +22°C° 0.1 mm 4 mps 747 mmHg 75%
15:00 +22°C° 0.3 mm 4 mps 746 mmHg 77%
16:00 +22°C° 0.3 mm 5 mps 746 mmHg 78%
17:00 +23°C° 0.3 mm 5 mps 746 mmHg 79%
18:00 +22°C° 0.2 mm 5 mps 745 mmHg 83%
19:00 +21°C° 0.2 mm 4 mps 745 mmHg 86%
20:00 +20°C° 0.2 mm 4 mps 745 mmHg 90%
21:00 +20°C° 0.3 mm 5 mps 745 mmHg 91%
22:00 +19°C° 0.3 mm 5 mps 744 mmHg 93%
23:00 +19°C° 0.3 mm 5 mps 744 mmHg 94%

11 July, Saturday

Time Temperature Precipitation Wind Pressure Humidity
00:00 +19°C° 0.3 mm 5 mps 744 mmHg 94%
01:00 +19°C° 0.3 mm 5 mps 744 mmHg 95%
02:00 +19°C° 0.3 mm 5 mps 744 mmHg 95%
03:00 +19°C° 0.3 mm 5 mps 744 mmHg 96%
04:00 +18°C° 0.3 mm 4 mps 744 mmHg 96%
05:00 +18°C° 0.3 mm 4 mps 744 mmHg 97%
06:00 +19°C° 0.2 mm 4 mps 744 mmHg 94%
07:00 +19°C° 0.2 mm 4 mps 745 mmHg 92%
08:00 +19°C° 0.2 mm 4 mps 745 mmHg 89%
09:00 +19°C° 0 mm 4 mps 745 mmHg 84%
10:00 +18°C° 0 mm 4 mps 746 mmHg 78%
11:00 +18°C° 0 mm 4 mps 746 mmHg 72%
12:00 +18°C° 0 mm 4 mps 747 mmHg 70%
13:00 +18°C° 0 mm 3 mps 747 mmHg 68%
14:00 +18°C° 0 mm 3 mps 747 mmHg 66%
15:00 +18°C° 0 mm 3 mps 747 mmHg 70%
16:00 +17°C° 0 mm 3 mps 747 mmHg 74%
17:00 +16°C° 0 mm 3 mps 747 mmHg 77%
18:00 +16°C° 0 mm 3 mps 747 mmHg 79%
19:00 +14°C° 0 mm 3 mps 747 mmHg 81%
20:00 +13°C° 0 mm 3 mps 747 mmHg 83%
21:00 +13°C° 0.1 mm 3 mps 748 mmHg 85%
22:00 +14°C° 0.1 mm 2 mps 748 mmHg 87%
23:00 +14°C° 0.1 mm 2 mps 748 mmHg 88%

12 July, Sunday

Time Temperature Precipitation Wind Pressure Humidity
00:00 +13°C° 0.7 mm 2 mps 748 mmHg 91%
01:00 +13°C° 0.7 mm 2 mps 748 mmHg 93%
02:00 +13°C° 0.7 mm 2 mps 748 mmHg 96%
03:00 +13°C° 1.2 mm 2 mps 748 mmHg 95%
04:00 +13°C° 1.2 mm 1 mps 748 mmHg 95%
05:00 +12°C° 1.2 mm 1 mps 748 mmHg 94%
06:00 +13°C° 0.2 mm 1 mps 748 mmHg 91%
07:00 +14°C° 0.2 mm 1 mps 748 mmHg 87%
08:00 +14°C° 0.2 mm 1 mps 748 mmHg 84%
09:00 +15°C° 0.2 mm 1 mps 748 mmHg 80%
10:00 +16°C° 0.2 mm 2 mps 748 mmHg 76%
11:00 +17°C° 0.2 mm 2 mps 748 mmHg 72%
12:00 +17°C° 0.2 mm 3 mps 748 mmHg 72%
13:00 +18°C° 0.2 mm 3 mps 748 mmHg 71%
14:00 +18°C° 0.2 mm 4 mps 748 mmHg 71%
15:00 +18°C° 0.1 mm 4 mps 748 mmHg 70%
16:00 +18°C° 0.1 mm 4 mps 748 mmHg 69%
17:00 +19°C° 0.1 mm 4 mps 748 mmHg 68%
18:00 +17°C° 0.1 mm 3 mps 747 mmHg 74%
19:00 +16°C° 0.1 mm 3 mps 747 mmHg 80%
20:00 +13°C° 0.1 mm 3 mps 747 mmHg 86%
21:00 +12°C° 0 mm 3 mps 747 mmHg 89%
22:00 +11°C° 0 mm 3 mps 747 mmHg 91%
23:00 +10°C° 0 mm 3 mps 747 mmHg 94%
Show more